Location: Unspecified
(0.0000°N, 0.0000°E)
Time: 07:00:19
(UTC+00:00)

deb Explorer IX - All Passes

Search period start: 26 October 2020 00:00
Search period end: 05 November 2020 00:00
Orbit: 537 x 1106 km, 38.8° (Epoch: 25 October)

Date Brightness Start Highest point End Pass type
(mag) Time Alt. Az. Time Alt. Az. Time Alt. Az.
26 Oct - 02:19:15 10° SW 02:23:51 69° SE 02:29:16 10° NE visible
26 Oct - 04:07:41 10° WNW 04:11:05 17° NW 04:14:49 10° N visible
26 Oct - 13:14:41 10° NNW 13:20:54 34° NE 13:26:29 10° ESE daylight
26 Oct - 15:01:53 10° WNW 15:08:07 44° SW 15:13:32 10° SSE daylight
27 Oct - 01:56:14 10° SW 02:00:43 70° SE 02:05:56 10° NE night (unlit)
27 Oct - 03:44:46 10° WNW 03:47:54 16° NW 03:51:19 10° N visible
27 Oct - 12:51:15 10° NNW 12:57:36 35° NE 13:03:22 10° ESE daylight
27 Oct - 14:38:28 10° WNW 14:44:53 45° SW 14:50:26 10° SSE daylight
28 Oct - 01:33:13 10° SW 01:37:35 70° SE 01:42:38 10° NE night (unlit)
28 Oct - 03:21:53 10° WNW 03:24:44 15° NW 03:27:49 10° N visible
28 Oct - 12:27:49 10° NNW 12:34:18 36° NE 12:40:14 10° ESE daylight
28 Oct - 14:15:03 10° WNW 14:21:36 45° SW 14:27:21 10° SSE daylight
29 Oct - 01:10:13 10° SW 01:14:28 71° SE 01:19:20 10° NE night (unlit)
29 Oct - 02:59:02 10° WNW 03:01:34 14° NW 03:04:19 10° N night (unlit)
29 Oct - 12:04:24 10° NNW 12:10:59 37° NE 12:17:05 10° ESE daylight
29 Oct - 13:51:39 10° WNW 13:58:18 45° SW 14:04:13 10° SSE daylight
30 Oct - 00:47:11 10° SW 00:51:22 72° SE 00:56:04 10° NE night (unlit)
30 Oct - 02:36:12 10° WNW 02:38:26 13° NW 02:40:48 10° N night (unlit)
30 Oct - 11:41:00 10° NNW 11:47:39 37° NE 11:53:53 10° ESE daylight
30 Oct - 13:28:14 10° WNW 13:35:00 46° SW 13:41:04 10° SSE daylight
31 Oct - 00:24:09 10° SW 00:28:16 73° SE 00:32:50 10° NE night (unlit)
31 Oct - 02:13:25 10° WNW 02:15:18 12° NW 02:17:16 10° N night (unlit)
31 Oct - 11:17:37 10° NNW 11:24:19 38° NE 11:30:41 10° ESE daylight
31 Oct - 13:04:50 10° WNW 13:11:41 46° SW 13:17:54 10° SSE daylight
01 Nov - 00:01:07 10° SW 00:05:11 74° SE 00:09:37 10° NE night (unlit)
01 Nov - 01:50:41 10° NW 01:52:10 11° NW 01:53:41 10° NNW night (unlit)
01 Nov - 10:54:14 10° NNW 11:00:58 39° NE 11:07:28 10° ESE daylight
01 Nov - 12:41:27 10° WNW 12:48:21 46° SW 12:54:43 10° SSE daylight
01 Nov - 23:38:04 10° SW 23:42:06 76° SE 23:46:24 10° NE night (unlit)
02 Nov - 01:28:04 10° NW 01:29:02 11° NW 01:30:01 10° NNW night (unlit)
02 Nov - 10:30:53 10° NNW 10:37:37 39° NE 10:44:12 10° ESE daylight
02 Nov - 12:18:04 10° WNW 12:25:00 46° SW 12:31:30 10° SSE daylight
02 Nov - 23:15:00 10° SW 23:19:01 77° SE 23:23:14 10° NE night (unlit)
03 Nov - 10:07:33 10° NNW 10:14:15 39° NE 10:20:55 10° ESE daylight
03 Nov - 11:54:41 10° WNW 12:01:39 46° SW 12:08:17 10° SSE daylight
03 Nov - 22:51:55 10° SW 22:55:56 79° SE 23:00:04 10° NE night (unlit)
04 Nov - 09:44:13 10° NNW 09:50:53 40° NE 09:57:37 10° ESE daylight
04 Nov - 11:31:20 10° WNW 11:38:17 46° SW 11:45:01 10° SSE daylight
04 Nov - 22:28:48 10° SW 22:32:52 80° SE 22:36:56 10° NE night (unlit)
